Location: Auttagershofen
(48.1940°N, 10.0237°E)
Time: 21:44:01
(UTC+00:00)

Lacrosse 5 rocket - Pass Details

Date: 14 April 2026
Orbit: 390 x 471 km, 57.0° (Epoch: 19 May)

Event Time Altitude Azimuth Distance (km) Brightness Sun altitude
Rises 21:05:04 0° 284° (WNW) 2,290 5.3 -24.9°
Reaches altitude 10° 21:07:34 10° 305° (NW) 1,430 4.4 -25.2°
Maximum altitude 21:09:52 18° 351° (N) 1,044 3.4 -25.4°
Enters shadow 21:10:42 17° 12° (NNE) 1,105 3.3 -25.5°
